Retour au catalogue

FENGYUN 1C DEB

ActifPO
NORAD 31000·DEBRIS·🇨🇳 China

Lancé May 10, 1999 depuis Taiyuan Satellite Launch Center

Loading…

Prochains Passages (prochaines 24 heures)

TLE

VieillissantSource: Space-Track

Époque: Sep 6, 2026, 22:37 UTC

1 31000U 99025BCS 26249.94274948  .00000625  00000-0  32851-3 0  9994
2 31000  97.5604 241.0576 0164024   2.2569  25.4295 14.10182907737369

Suivez FENGYUN 1C DEB en temps réel avec AllMySat

Download on the App Store